• Join FlightAware (Why Join?)
  • Login
  • US Flag 
06:29PM EST


 

Airport Tracker/Info


-or-


 

Live Flight TrackerFlight Track Log ✈ EJA933 ✈ 19-Jun-2013 ✈ KONT - KSTC

Flight Track Log - Related Links

Times and Time Zones

All times are in EDT time to prevent confusion due to time zone crossing. See the EJA933 flight status page for this flight to view local times or setup timezone preferences in your user account.

Time Position Orientation Groundspeed Altitude Reporting Facility
EDT Latitude Longitude Course Direction KTS MPH feet Rate Location/Type
05:53PM 34.0500 -117.6333 270° West 199 229 2,600  Level Southern California TRACON
05:54PM 34.0500 -117.7167 270° West 273 314 5,200 2,100 Climbing Southern California TRACON
05:56PM 34.1522 -117.8719 309° West 277 319 9,500 1,860 Climbing Los Angeles Center
05:57PM 34.2100 -117.9356 318° Northwest 282 325 11,300 1,980 Climbing Los Angeles Center
05:58PM 34.2942 -117.8772 30° Northeast 330 380 13,700 1,980 Climbing Los Angeles Center
05:59PM 34.3453 -117.7831 57° Northeast 336 387 15,500 1,560 Climbing Los Angeles Center
06:00PM 34.4033 -117.6717 58° Northeast 369 425 17,000 1,260 Climbing Los Angeles Center
06:01PM 34.4611 -117.5581 58° Northeast 399 459 18,200 1,200 Climbing Los Angeles Center
06:02PM 34.5206 -117.4403 58° Northeast 414 476 19,500 1,200 Climbing Los Angeles Center
06:03PM 34.5833 -117.3183 58° Northeast 425 489 20,700 1,080 Climbing Los Angeles Center
06:04PM 34.6483 -117.1922 58° Northeast 439 505 21,800 1,320 Climbing Los Angeles Center
06:05PM 34.7286 -117.0367 58° Northeast 454 522 23,500 1,500 Climbing Los Angeles Center
06:06PM 34.7950 -116.9033 59° Northeast 463 533 24,900 1,320 Climbing Los Angeles Center
06:07PM 34.8639 -116.7675 58° Northeast 472 543 26,300 1,320 Climbing Los Angeles Center
06:08PM 34.9347 -116.6303 58° Northeast 481 554 27,700 1,320 Climbing Los Angeles Center
06:10PM 35.0389 -116.4792 50° Northeast 483 556 29,400 1,440 Climbing Los Angeles Center
06:11PM 35.1542 -116.3356 46° Northeast 492 566 31,000 1,440 Climbing Los Angeles Center
06:12PM 35.2539 -116.2117 45° Northeast 503 579 32,400 1,200 Climbing Los Angeles Center
06:13PM 35.3536 -116.0828 46° Northeast 517 595 33,500 1,080 Climbing Los Angeles Center
06:14PM 35.4569 -115.9528 46° Northeast 530 610 34,700 1,020 Climbing Los Angeles Center
06:15PM 35.5664 -115.8200 45° Northeast 537 618 35,700 1,020 Climbing Los Angeles Center
06:16PM 35.6942 -115.6583 46° Northeast 547 629 36,900 1,020 Climbing Los Angeles Center
06:17PM 35.8011 -115.5197 46° Northeast 557 641 37,900 960 Climbing Los Angeles Center
06:18PM 35.9075 -115.3828 46° Northeast 558 642 38,900 960 Climbing Los Angeles Center
06:19PM 36.0117 -115.2442 47° Northeast 558 642 39,900 840 Climbing Los Angeles Center
06:20PM 36.1164 -115.1100 46° Northeast 552 635 40,700 480 Climbing Los Angeles Center
06:21PM 36.2458 -114.9486 45° Northeast 556 640 41,000 120 Climbing Los Angeles Center
06:22PM 36.3547 -114.8094 46° Northeast 564 649 41,000  Level Los Angeles Center
06:23PM 36.4628 -114.6689 46° Northeast 566 651 41,000  Level Los Angeles Center
06:24PM 36.5714 -114.5250 47° Northeast 571 657 41,000  Level Los Angeles Center
06:25PM 36.6817 -114.3825 46° Northeast 573 659 41,000  Level Los Angeles Center
06:26PM 36.7856 -114.2297 50° Northeast 578 665 41,000  Level Los Angeles Center
06:27PM 36.8847 -114.0186 60° Northeast 586 674 41,000  Level Los Angeles Center
06:28PM 36.9736 -113.8353 59° Northeast 588 677 41,000  Level Los Angeles Center
06:29PM 37.0561 -113.6594 60° Northeast 588 677 41,000  Level Los Angeles Center
06:30PM 37.1403 -113.4842 59° Northeast 588 677 41,000  Level Los Angeles Center
06:31PM 37.2231 -113.3083 59° Northeast 588 677 41,000  Level Los Angeles Center
06:32PM 37.3053 -113.1317 60° Northeast 589 678 41,000  Level Los Angeles Center
06:33PM 37.3714 -112.9908 59° Northeast 590 679 41,000  Level Los Angeles Center
06:34PM 37.4844 -112.7481 60° Northeast 590 679 41,000  Level Los Angeles Center
06:35PM 37.5656 -112.5728 60° Northeast 593 682 41,000  Level Los Angeles Center
06:36PM 37.6472 -112.3964 60° Northeast 591 680 41,000  Level Salt Lake Center
06:38PM 37.7819 -112.2253 45° Northeast 579 666 41,000  Level Salt Lake Center
06:39PM 37.9156 -112.1128 34° Northeast 579 666 41,000  Level Salt Lake Center
06:40PM 38.0469 -111.9992 34° Northeast 575 662 41,000  Level Salt Lake Center
06:41PM 38.1797 -111.8869 34° Northeast 576 663 41,000  Level Salt Lake Center
06:42PM 38.3117 -111.7733 34° Northeast 574 661 41,000  Level Salt Lake Center
06:43PM 38.4436 -111.6575 35° Northeast 576 663 41,000  Level Salt Lake Center
06:44PM 38.6025 -111.5189 34° Northeast 576 663 41,000  Level Salt Lake Center
06:45PM 38.7339 -111.4058 34° Northeast 572 658 41,000  Level Salt Lake Center
06:46PM 38.8658 -111.2875 35° Northeast 578 665 41,000  Level Salt Lake Center
06:47PM 39.0036 -111.1650 35° Northeast 579 666 41,000  Level Salt Lake Center
06:48PM 39.1294 -111.0517 35° Northeast 575 662 41,000  Level Salt Lake Center
06:49PM 39.2767 -110.9219 34° Northeast 574 661 41,000  Level Salt Lake Center
06:50PM 39.4003 -110.8106 35° Northeast 568 654 41,000  Level Salt Lake Center
06:51PM 39.5453 -110.6803 35° Northeast 567 652 41,000  Level Salt Lake Center
06:52PM 39.6689 -110.5672 35° Northeast 566 651 41,000  Level Salt Lake Center
06:53PM 39.7925 -110.4550 35° Northeast 566 651 41,000  Level Salt Lake Center
06:54PM 39.9369 -110.3233 35° Northeast 565 650 41,000  Level Salt Lake Center
06:55PM 40.0600 -110.2097 35° Northeast 564 649 41,000  Level Salt Lake Center
06:56PM 40.1942 -110.0594 41° Northeast 568 654 41,000  Level Salt Lake Center
06:57PM 40.2911 -109.9111 49° Northeast 561 646 41,000 420 Level Salt Lake Center
06:59PM 40.4492 -109.6675 50° Northeast 547 629 42,200 720 Climbing Denver Center
06:59PM 40.4956 -109.5969 49° Northeast 544 626 42,600 480 Climbing Salt Lake Center
07:00PM 40.5889 -109.4525 50° Northeast 541 623 43,000 180 Climbing Salt Lake Center
07:01PM 40.6994 -109.2811 50° Northeast 547 629 43,000  Level Salt Lake Center
07:02PM 40.8017 -109.1186 50° Northeast 563 648 43,000  Level Salt Lake Center
07:03PM 40.8972 -108.9667 50° Northeast 566 651 43,000  Level Salt Lake Center
07:04PM 41.0100 -108.7889 50° Northeast 569 655 43,100  Climbing Salt Lake Center
07:05PM 41.1044 -108.6378 50° Northeast 563 648 43,100 -60 Level Salt Lake Center
07:06PM 41.2150 -108.4628 50° Northeast 561 646 43,000 -60 Descending Salt Lake Center
07:07PM 41.2925 -108.3364 51° Northeast 555 639 43,000  Level Denver Center
07:08PM 41.3864 -108.1847 50° Northeast 557 641 43,000  Level Denver Center
07:09PM 41.4978 -108.0047 50° Northeast 562 647 43,000  Level Denver Center
07:10PM 41.5931 -107.8481 51° Northeast 567 652 43,000  Level Denver Center
07:11PM 41.7042 -107.6667 51° Northeast 567 652 43,000  Level Denver Center
07:12PM 41.7956 -107.5083 52° Northeast 563 648 43,000  Level Denver Center
07:13PM 41.8936 -107.3186 55° Northeast 557 641 43,000  Level Denver Center
07:14PM 41.9781 -107.1558 55° Northeast 557 641 43,000  Level Denver Center
07:15PM 42.0483 -107.0217 55° Northeast 552 635 43,000  Level Denver Center
07:16PM 42.1594 -106.8042 55° Northeast 552 635 43,000  Level Denver Center
07:17PM 42.2558 -106.6133 56° Northeast 552 635 43,000  Level Denver Center
07:19PM 42.3425 -106.4456 55° Northeast 552 635 43,000  Level Denver Center
07:20PM 42.4242 -106.2825 56° Northeast 548 631 43,000  Level Denver Center
07:21PM 42.5192 -106.0894 56° Northeast 551 634 43,000  Level Denver Center
07:22PM 42.6011 -105.9258 56° Northeast 547 629 43,000  Level Denver Center
07:23PM 42.6939 -105.7356 56° Northeast 539 620 43,000  Level Denver Center
07:24PM 42.7733 -105.5753 56° Northeast 534 615 43,000  Level Denver Center
07:25PM 42.8661 -105.3867 56° Northeast 534 615 43,000  Level Denver Center
07:26PM 42.9444 -105.2244 57° Northeast 533 613 43,000  Level Denver Center
07:27PM 43.0369 -105.0347 56° Northeast 534 615 43,000  Level Denver Center
07:28PM 43.1142 -104.8711 57° Northeast 533 613 43,000  Level Denver Center
07:29PM 43.1939 -104.7053 57° Northeast 536 617 43,000  Level Denver Center
07:30PM 43.2861 -104.5094 57° Northeast 541 623 43,000  Level Denver Center
07:31PM 43.3647 -104.3411 57° Northeast 543 625 43,000  Level Denver Center
07:32PM 43.4569 -104.1433 57° Northeast 546 628 43,000  Level Denver Center
07:33PM 43.5369 -103.9761 57° Northeast 546 628 43,000  Level Denver Center
07:34PM 43.6286 -103.7794 57° Northeast 545 627 43,000  Level Denver Center
07:35PM 43.7067 -103.6089 58° Northeast 548 631 43,000  Level Denver Center
07:36PM 43.7981 -103.4097 58° Northeast 549 632 43,000  Level Denver Center
07:37PM 43.8764 -103.2369 58° Northeast 551 634 43,000  Level Denver Center
07:38PM 43.9658 -103.0372 58° Northeast 548 631 43,000  Level Denver Center
07:39PM 44.0333 -102.8581 62° Northeast 546 628 43,000  Level Denver Center
07:40PM 44.0908 -102.6775 66° East 546 628 43,000  Level Denver Center
07:41PM 44.1683 -102.4442 65° Northeast 551 634 43,000  Level Denver Center
07:42PM 44.2297 -102.2497 66° East 550 633 43,000  Level Denver Center
07:43PM 44.2933 -102.0569 65° Northeast 548 631 43,000  Level Denver Center
07:44PM 44.3578 -101.8661 65° Northeast 545 627 43,000  Level Denver Center
07:45PM 44.4183 -101.6719 66° East 545 627 43,000  Level Denver Center
07:46PM 44.4792 -101.4811 66° East 540 621 43,000  Level Denver Center
07:47PM 44.5278 -101.3272 66° East 542 624 43,000  Level Minneapolis Center
07:48PM 44.5900 -101.1342 66° East 543 625 43,000  Level Minneapolis Center
07:49PM 44.6508 -100.9422 66° East 542 624 43,000  Level Minneapolis Center
07:50PM 44.7106 -100.7481 67° East 542 624 43,000  Level Minneapolis Center
07:51PM 44.7700 -100.5550 66° East 540 621 43,000  Level Minneapolis Center
07:52PM 44.8419 -100.3214 66° East 543 625 43,000  Level Minneapolis Center
07:53PM 44.9014 -100.1264 67° East 545 627 43,000  Level Minneapolis Center
07:54PM 44.9619 -99.9214 67° East 547 629 43,000  Level Minneapolis Center
07:55PM 45.0164 -99.7408 67° East 552 635 43,000  Level Minneapolis Center
07:56PM 45.0878 -99.5069 67° East 547 629 43,000  Level Minneapolis Center
07:57PM 45.1458 -99.3114 67° East 544 626 43,000  Level Minneapolis Center
07:58PM 45.2033 -99.1158 67° East 540 621 43,000  Level Minneapolis Center
08:00PM 45.2722 -98.8825 67° East 537 618 43,000  Level Minneapolis Center
08:01PM 45.3272 -98.6883 68° East 533 613 43,000  Level Minneapolis Center
08:02PM 45.3831 -98.4922 68° East 534 615 43,000 -300 Level Minneapolis Center
08:03PM 45.4233 -98.2864 74° East 542 624 42,400 -960 Descending Minneapolis Center
08:04PM 45.4339 -98.0475 86° East 543 625 41,000 -720 Descending Minneapolis Center
08:05PM 45.4442 -97.8333 86° East 543 625 41,000  Level Minneapolis Center
08:06PM 45.4522 -97.6200 87° East 541 623 41,000  Level Minneapolis Center
08:07PM 45.4614 -97.4078 86° East 538 619 41,000  Level Minneapolis Center
08:08PM 45.4692 -97.1961 87° East 537 618 41,000  Level Minneapolis Center
08:09PM 45.4769 -96.9850 87° East 535 616 41,000 -960 Level Minneapolis Center
08:10PM 45.4853 -96.7336 87° East 531 611 39,100 -2,280 Descending Minneapolis Center
08:11PM 45.4936 -96.5336 87° East 511 588 36,300 -2,760 Descending Minneapolis Center
08:12PM 45.4978 -96.3425 88° East 489 563 33,500 -2,820 Descending Minneapolis Center
08:13PM 45.5042 -96.1322 87° East 521 600 30,500 -2,940 Descending Minneapolis Center
08:14PM 45.5111 -95.9233 87° East 527 606 27,500 -2,880 Descending Minneapolis Center
08:15PM 45.5158 -95.7150 88° East 526 605 24,600 -3,000 Descending Minneapolis Center
08:16PM 45.5217 -95.4822 88° East 496 571 21,300 -2,880 Descending Minneapolis Center
08:17PM 45.5264 -95.2908 88° East 486 559 18,600 -2,580 Descending Minneapolis Center
08:18PM 45.5297 -95.1117 88° East 462 532 16,000 -2,580 Descending Minneapolis Center
08:19PM 45.5336 -94.9256 88° East 451 519 13,300 -3,000 Descending Minneapolis Center
08:20PM 45.5364 -94.7753 88° East 392 451 9,800 -3,000 Descending Minneapolis Center
08:21PM 45.5419 -94.6514 86° East 331 381 7,100 -2,100 Descending Minneapolis Center
08:22PM 45.5508 -94.5319 84° East 310 357 5,500 -1,380 Descending Minneapolis Center
08:23PM 45.5717 -94.4242 75° East 294 338 4,300 -1,080 Descending Minneapolis Center
08:24PM 45.5883 -94.3181 77° East 258 297 3,300 -660 Descending Minneapolis Center
08:26PM 45.5978 -94.2167 82° East 234 269 2,900 -360 Descending Minneapolis Center
08:27PM 45.6014 -94.1467 86° East 225 259 2,600 -300 Descending Minneapolis Center